• In Uzbekistan
  • List of Countries
  • For 7 days
  • Water Temperature
  • Satellite Maps
  • Weather Map
  • Weather Widgets
  • user-avatar
    Login

    Hourly Weather Río Gallegos

    Today, 26 April, Wednesday

    Time Temperature Precipitation Wind Pressure Humidity
    00:00 +4°C° 0 mm 7 mps 752 mmHg 82%
    01:00 +4°C° 0 mm 7 mps 752 mmHg 82%
    02:00 +4°C° 0 mm 7 mps 752 mmHg 83%
    03:00 +4°C° 0 mm 8 mps 752 mmHg 83%
    04:00 +4°C° 0 mm 8 mps 752 mmHg 84%
    05:00 +4°C° 0 mm 7 mps 752 mmHg 84%
    06:00 +4°C° 0 mm 7 mps 751 mmHg 85%
    07:00 +4°C° 0 mm 6 mps 751 mmHg 85%
    08:00 +5°C° 0 mm 7 mps 751 mmHg 77%
    09:00 +6°C° 0 mm 8 mps 751 mmHg 69%
    10:00 +7°C° 0 mm 8 mps 750 mmHg 61%
    11:00 +9°C° 0.1 mm 8 mps 750 mmHg 59%
    12:00 +10°C° 0.1 mm 8 mps 749 mmHg 57%
    13:00 +11°C° 0.1 mm 9 mps 748 mmHg 54%
    14:00 +10°C° 0.1 mm 9 mps 748 mmHg 59%
    15:00 +8°C° 0.1 mm 9 mps 748 mmHg 64%
    16:00 +7°C° 0.1 mm 10 mps 748 mmHg 69%
    17:00 +7°C° 0 mm 9 mps 749 mmHg 73%
    18:00 +6°C° 0 mm 9 mps 749 mmHg 78%
    19:00 +5°C° 0 mm 8 mps 749 mmHg 82%
    20:00 +5°C° 0 mm 8 mps 749 mmHg 79%
    21:00 +3°C° 0 mm 9 mps 749 mmHg 76%
    22:00 +3°C° 0 mm 9 mps 749 mmHg 73%
    23:00 +3°C° 0 mm 9 mps 749 mmHg 74%

    Tomorrow, 27 April, Thursday

    Time Temperature Precipitation Wind Pressure Humidity
    00:00 +2°C° 0 mm 9 mps 749 mmHg 74%
    01:00 +2°C° 0 mm 9 mps 748 mmHg 75%
    02:00 +2°C° 0 mm 9 mps 748 mmHg 75%
    03:00 +2°C° 0 mm 9 mps 748 mmHg 75%
    04:00 +2°C° 0 mm 9 mps 748 mmHg 75%
    05:00 +2°C° 0 mm 9 mps 748 mmHg 76%
    06:00 +2°C° 0 mm 8 mps 748 mmHg 76%
    07:00 +2°C° 0 mm 8 mps 748 mmHg 77%
    08:00 +4°C° 0 mm 8 mps 748 mmHg 74%
    09:00 +4°C° 0 mm 8 mps 748 mmHg 71%
    10:00 +5°C° 0 mm 7 mps 748 mmHg 68%
    11:00 +5°C° 0 mm 7 mps 748 mmHg 66%
    12:00 +6°C° 0 mm 7 mps 748 mmHg 65%
    13:00 +6°C° 0 mm 8 mps 748 mmHg 63%
    14:00 +6°C° 0 mm 7 mps 748 mmHg 65%
    15:00 +6°C° 0 mm 7 mps 747 mmHg 68%
    16:00 +5°C° 0 mm 6 mps 747 mmHg 70%
    17:00 +4°C° 0 mm 6 mps 748 mmHg 74%
    18:00 +5°C° 0 mm 5 mps 748 mmHg 78%
    19:00 +3°C° 0 mm 5 mps 748 mmHg 82%
    20:00 +3°C° 0.1 mm 5 mps 748 mmHg 83%
    21:00 +3°C° 0.1 mm 5 mps 748 mmHg 83%
    22:00 +3°C° 0.1 mm 5 mps 747 mmHg 84%
    23:00 +4°C° 0.8 mm 4 mps 747 mmHg 86%

    Day after tomorrow, 28 April, Friday

    Time Temperature Precipitation Wind Pressure Humidity
    00:00 +4°C° 0.8 mm 3 mps 747 mmHg 88%
    01:00 +4°C° 0.8 mm 3 mps 747 mmHg 90%
    02:00 +4°C° 0.2 mm 4 mps 746 mmHg 88%
    03:00 +3°C° 0.2 mm 5 mps 746 mmHg 85%
    04:00 +3°C° 0.2 mm 6 mps 745 mmHg 83%
    05:00 +4°C° 0.1 mm 7 mps 746 mmHg 81%
    06:00 +4°C° 0.1 mm 8 mps 746 mmHg 79%
    07:00 +3°C° 0.1 mm 10 mps 746 mmHg 78%
    08:00 +5°C° 0 mm 10 mps 746 mmHg 73%
    09:00 +6°C° 0 mm 11 mps 747 mmHg 68%
    10:00 +7°C° 0 mm 12 mps 747 mmHg 64%
    11:00 +8°C° 0 mm 12 mps 747 mmHg 61%
    12:00 +8°C° 0 mm 11 mps 747 mmHg 58%
    13:00 +9°C° 0 mm 11 mps 748 mmHg 55%
    14:00 +8°C° 0 mm 9 mps 747 mmHg 60%
    15:00 +8°C° 0 mm 7 mps 747 mmHg 65%
    16:00 +8°C° 0 mm 5 mps 747 mmHg 69%
    17:00 +7°C° 0.3 mm 6 mps 747 mmHg 74%
    18:00 +7°C° 0.3 mm 6 mps 747 mmHg 79%
    19:00 +5°C° 0.3 mm 6 mps 746 mmHg 84%
    20:00 +5°C° 1.4 mm 7 mps 746 mmHg 82%
    21:00 +5°C° 1.4 mm 8 mps 745 mmHg 81%
    22:00 +6°C° 1.4 mm 8 mps 744 mmHg 79%
    23:00 +6°C° 0.9 mm 9 mps 743 mmHg 78%

    29 April, Saturday

    Time Temperature Precipitation Wind Pressure Humidity
    00:00 +6°C° 0.9 mm 9 mps 742 mmHg 78%
    01:00 +7°C° 0.9 mm 9 mps 741 mmHg 77%
    02:00 +6°C° 0 mm 11 mps 741 mmHg 74%
    03:00 +5°C° 0 mm 12 mps 741 mmHg 72%
    04:00 +5°C° 0 mm 14 mps 741 mmHg 69%
    05:00 +4°C° 0 mm 15 mps 743 mmHg 69%
    06:00 +4°C° 0 mm 15 mps 744 mmHg 69%
    07:00 +4°C° 0 mm 16 mps 745 mmHg 69%
    08:00 +4°C° 0 mm 15 mps 747 mmHg 66%
    09:00 +5°C° 0 mm 15 mps 748 mmHg 63%
    10:00 +5°C° 0 mm 15 mps 750 mmHg 60%
    11:00 +7°C° 0 mm 13 mps 750 mmHg 59%
    12:00 +7°C° 0 mm 12 mps 751 mmHg 57%
    13:00 +8°C° 0 mm 11 mps 752 mmHg 55%
    14:00 +7°C° 0 mm 10 mps 752 mmHg 59%
    15:00 +7°C° 0 mm 8 mps 753 mmHg 62%
    16:00 +6°C° 0 mm 7 mps 754 mmHg 66%
    17:00 +5°C° 0 mm 6 mps 754 mmHg 69%
    18:00 +6°C° 0 mm 5 mps 755 mmHg 72%
    19:00 +5°C° 0 mm 4 mps 755 mmHg 75%
    20:00 +5°C° 0 mm 4 mps 755 mmHg 75%
    21:00 +5°C° 0 mm 4 mps 755 mmHg 75%
    22:00 +5°C° 0 mm 3 mps 755 mmHg 75%
    23:00 +5°C° 0 mm 4 mps 755 mmHg 74%

    30 April, Sunday

    Time Temperature Precipitation Wind Pressure Humidity
    00:00 +6°C° 0 mm 5 mps 754 mmHg 74%
    01:00 +6°C° 0 mm 5 mps 754 mmHg 73%
    02:00 +5°C° 0.7 mm 7 mps 753 mmHg 75%
    03:00 +5°C° 0.7 mm 8 mps 752 mmHg 78%
    04:00 +5°C° 0.7 mm 9 mps 751 mmHg 81%
    05:00 +5°C° 1.6 mm 10 mps 750 mmHg 82%
    06:00 +4°C° 1.6 mm 11 mps 748 mmHg 84%
    07:00 +4°C° 1.6 mm 12 mps 747 mmHg 86%
    08:00 +6°C° 0.8 mm 10 mps 746 mmHg 86%
    09:00 +7°C° 0.8 mm 9 mps 745 mmHg 87%
    10:00 +9°C° 0.8 mm 7 mps 744 mmHg 88%
    11:00 +10°C° 0.1 mm 6 mps 743 mmHg 85%
    12:00 +12°C° 0.1 mm 4 mps 742 mmHg 83%
    13:00 +13°C° 0.1 mm 3 mps 742 mmHg 80%
    14:00 +13°C° 0.1 mm 3 mps 741 mmHg 81%
    15:00 +12°C° 0.1 mm 3 mps 741 mmHg 83%
    16:00 +12°C° 0.1 mm 3 mps 741 mmHg 84%
    17:00 +12°C° 0 mm 3 mps 741 mmHg 83%
    18:00 +12°C° 0 mm 3 mps 741 mmHg 83%
    19:00 +12°C° 0 mm 3 mps 740 mmHg 82%
    20:00 +12°C° 0.2 mm 4 mps 740 mmHg 82%
    21:00 +12°C° 0.2 mm 4 mps 740 mmHg 82%
    22:00 +12°C° 0.2 mm 4 mps 740 mmHg 82%
    23:00 +12°C° 0 mm 5 mps 740 mmHg 82%

    1 May, Monday

    Time Temperature Precipitation Wind Pressure Humidity
    00:00 +10°C° 0 mm 5 mps 739 mmHg 81%
    01:00 +10°C° 0 mm 5 mps 739 mmHg 81%
    02:00 +10°C° 0 mm 5 mps 739 mmHg 81%
    03:00 +10°C° 0 mm 5 mps 740 mmHg 81%
    04:00 +10°C° 0 mm 5 mps 740 mmHg 81%
    05:00 +9°C° 0 mm 5 mps 741 mmHg 80%
    06:00 +9°C° 0 mm 5 mps 741 mmHg 79%
    07:00 +10°C° 0 mm 4 mps 742 mmHg 77%
    08:00 +10°C° 0 mm 5 mps 743 mmHg 71%
    09:00 +11°C° 0 mm 7 mps 743 mmHg 66%
    10:00 +12°C° 0 mm 8 mps 744 mmHg 60%
    11:00 +12°C° 0 mm 8 mps 744 mmHg 55%
    12:00 +11°C° 0 mm 8 mps 745 mmHg 50%
    13:00 +11°C° 0 mm 8 mps 745 mmHg 46%
    14:00 +11°C° 0 mm 7 mps 746 mmHg 47%
    15:00 +10°C° 0 mm 7 mps 746 mmHg 49%
    16:00 +10°C° 0 mm 7 mps 747 mmHg 50%
    17:00 +9°C° 0 mm 7 mps 747 mmHg 54%
    18:00 +8°C° 0 mm 6 mps 748 mmHg 58%
    19:00 +7°C° 0 mm 6 mps 749 mmHg 62%
    20:00 +7°C° 0 mm 6 mps 749 mmHg 62%
    21:00 +5°C° 0 mm 6 mps 749 mmHg 62%
    22:00 +5°C° 0 mm 6 mps 750 mmHg 63%
    23:00 +5°C° 0 mm 6 mps 750 mmHg 63%
    Show more